Aktuell
News
Messwerte
Diagramme
Archiv
Wettervorhersage
Regen
Wettergefahren

Astro & Geo
Health
Pegel
Gästebuch
Kontakt
Impressum
Datenschutz
App

Wolkig bei 27.6 °C – Luftdruck: 1011.0 hPa – Wind: SSW 1.4 km/h
Messwerte von 23:10 Uhr; Warnsymbol: Datenbasis DWD; Wetterzustand powered by OpenWeatherMap, CC BY-SA 4.0
Übersicht
Heute
Gestern
Vor 1 Jahr
Info
Heute – Der Tag im Rückblick
 
Messwerte von Freitag, 18.06.2021
Symbol
Zeitpunkt
Wetter-
zustand
Zeitpunkt
Temperatur
gefühlt
Zeitpunkt
Luftfeuchte
Taupunkt
Zeitpunkt
Luftdruck
Zeitpunkt
Wind
Zeitpunkt
Windböen
Max 15 Min.
Wind-
richtung
Zeitpunkt
Regen
Summe 1 h
Regenrate
Max 15 Min.
UV-Index
Max 15 Min.
Pegel Köln
Zeitpunkt
Warnlage
Zeitpunkt
00:15 Leicht bewölkt3 26.1 °C
26.1 °C
58 %
17.1 °C
1011.8 hPa 4.7 km/h
1 Bft
9.7 km/h
2 Bft
N -
0.0 mm/h
0.0 322 cm
00:30 Leicht bewölkt3 26.2 °C
26.2 °C
59 %
17.4 °C
1011.8 hPa 6.5 km/h
2 Bft
14.4 km/h
3 Bft
N -
0.0 mm/h
0.0 322 cm
00:45 Leicht bewölkt3 25.9 °C
25.9 °C
60 %
17.4 °C
1011.9 hPa 3.2 km/h
1 Bft
16.2 km/h
3 Bft
NW -
0.0 mm/h
0.0 322 cm
01:00 Leicht bewölkt3 25.6 °C
25.6 °C
62 %
17.7 °C
1011.8 hPa 3.2 km/h
1 Bft
6.5 km/h
2 Bft
WNW 0.00 mm
0.0 mm/h
0.0 322 cm
01:15 Leicht bewölkt3 25.4 °C
25.4 °C
63 %
17.8 °C
1011.8 hPa 4.7 km/h
1 Bft
13.0 km/h
3 Bft
N -
0.0 mm/h
0.0 322 cm
01:30 Leicht bewölkt3 25.1 °C
25.1 °C
65 %
18.0 °C
1011.8 hPa 3.2 km/h
1 Bft
7.9 km/h
2 Bft
N -
0.0 mm/h
0.0 322 cm
01:45 Leicht bewölkt3 24.9 °C
24.9 °C
66 %
18.0 °C
1011.5 hPa 4.7 km/h
1 Bft
11.2 km/h
2 Bft
NNO -
0.0 mm/h
0.0 322 cm
02:00 Leicht bewölkt3 25.0 °C
25.0 °C
66 %
18.1 °C
1011.8 hPa 6.5 km/h
2 Bft
14.4 km/h
3 Bft
NNW 0.00 mm
0.0 mm/h
0.0 322 cm
02:15 Leicht bewölkt3 24.9 °C
24.9 °C
67 %
18.3 °C
1011.7 hPa 6.5 km/h
2 Bft
13.0 km/h
3 Bft
NO -
0.0 mm/h
0.0 322 cm
02:30 Leicht bewölkt3 24.6 °C
24.6 °C
68 %
18.2 °C
1011.7 hPa 3.2 km/h
1 Bft
13.0 km/h
3 Bft
N -
0.0 mm/h
0.0 322 cm
02:45 Leicht bewölkt3 24.3 °C
24.3 °C
69 %
18.2 °C
1011.7 hPa 3.2 km/h
1 Bft
6.5 km/h
2 Bft
N -
0.0 mm/h
0.0 321 cm
03:00 Leicht bewölkt3 24.1 °C
24.1 °C
70 %
18.2 °C
1011.4 hPa 3.2 km/h
1 Bft
7.9 km/h
2 Bft
NO 0.00 mm
0.0 mm/h
0.0 322 cm
03:15 Leicht bewölkt3 23.8 °C
23.8 °C
71 %
18.2 °C
1011.3 hPa 4.7 km/h
1 Bft
9.7 km/h
2 Bft
NO -
0.0 mm/h
0.0 322 cm
03:30 Leicht bewölkt3 23.8 °C
23.8 °C
72 %
18.4 °C
1011.4 hPa 3.2 km/h
1 Bft
7.9 km/h
2 Bft
NNO -
0.0 mm/h
0.0 322 cm
03:45 Leicht bewölkt3 23.8 °C
23.8 °C
72 %
18.4 °C
1011.4 hPa 1.4 km/h
1 Bft
6.5 km/h
2 Bft
NNO -
0.0 mm/h
0.0 322 cm
04:00 Leicht bewölkt3 23.5 °C
23.5 °C
73 %
18.3 °C
1011.2 hPa 4.7 km/h
1 Bft
7.9 km/h
2 Bft
NO 0.00 mm
0.0 mm/h
0.0 322 cm
04:15 Leicht bewölkt3 23.6 °C
23.6 °C
74 %
18.7 °C
1011.0 hPa 3.2 km/h
1 Bft
7.9 km/h
2 Bft
NO -
0.0 mm/h
0.0 321 cm
04:30 Wolkig3 23.4 °C
23.4 °C
75 %
18.6 °C
1010.9 hPa 3.2 km/h
1 Bft
6.5 km/h
2 Bft
NO -
0.0 mm/h
0.0 322 cm
04:45 Leicht bewölkt3 23.4 °C
23.4 °C
75 %
18.6 °C
1011.2 hPa 1.4 km/h
1 Bft
6.5 km/h
2 Bft
NO -
0.0 mm/h
0.0 322 cm
05:00 Leicht bewölkt3 23.3 °C
23.3 °C
75 %
18.5 °C
1011.2 hPa 1.4 km/h
1 Bft
3.2 km/h
1 Bft
NO 0.00 mm
0.0 mm/h
0.0 321 cm
05:15 Leicht bewölkt3 23.3 °C
23.3 °C
75 %
18.5 °C
1011.1 hPa 1.4 km/h
1 Bft
6.5 km/h
2 Bft
OSO -
0.0 mm/h
0.0 320 cm
05:30 Wolkig3 23.1 °C
23.1 °C
75 %
18.3 °C
1011.3 hPa 3.2 km/h
1 Bft
6.5 km/h
2 Bft
SO -
0.0 mm/h
0.0 322 cm
05:45 Wolkig3 23.1 °C
23.1 °C
75 %
18.3 °C
1011.5 hPa 1.4 km/h
1 Bft
4.7 km/h
1 Bft
OSO -
0.0 mm/h
0.0 321 cm
06:00 Wolkig3 22.8 °C
22.8 °C
76 %
18.2 °C
1011.5 hPa 0.0 km/h
0 Bft
4.7 km/h
1 Bft
SO 0.00 mm
0.0 mm/h
0.0 321 cm
06:15 Wolkig3 22.8 °C
22.8 °C
77 %
18.4 °C
1011.4 hPa 3.2 km/h
1 Bft
4.7 km/h
1 Bft
OSO -
0.0 mm/h
0.0 319 cm
06:30 Stark bewölkt2 22.9 °C
22.9 °C
77 %
18.5 °C
1011.4 hPa 4.7 km/h
1 Bft
9.7 km/h
2 Bft
O -
0.0 mm/h
0.0 319 cm
06:45 Wolkig3 22.9 °C
22.9 °C
77 %
18.5 °C
1011.5 hPa 3.2 km/h
1 Bft
11.2 km/h
2 Bft
OSO -
0.0 mm/h
0.0 319 cm
07:00 Leicht bewölkt3 23.1 °C
23.1 °C
77 %
18.7 °C
1011.7 hPa 3.2 km/h
1 Bft
7.9 km/h
2 Bft
SO 0.00 mm
0.0 mm/h
0.0 319 cm
07:15 Leicht bewölkt3 23.2 °C
23.2 °C
76 %
18.6 °C
1011.7 hPa 3.2 km/h
1 Bft
6.5 km/h
2 Bft
SSO -
0.0 mm/h
0.0 321 cm
07:30 Leicht bewölkt3 23.4 °C
23.4 °C
76 %
18.8 °C
1011.8 hPa 1.4 km/h
1 Bft
7.9 km/h
2 Bft
SO -
0.0 mm/h
0.0 320 cm
07:45 Leicht bewölkt3 23.6 °C
23.6 °C
75 %
18.9 °C
1011.9 hPa 4.7 km/h
1 Bft
11.2 km/h
2 Bft
O -
0.0 mm/h
0.8 319 cm
08:00 Leicht bewölkt3 23.6 °C
23.6 °C
75 %
18.9 °C
1012.1 hPa 6.5 km/h
2 Bft
13.0 km/h
3 Bft
SO 0.00 mm
0.0 mm/h
0.9 319 cm
08:15 Sonnig2 23.7 °C
23.7 °C
75 %
19.0 °C
1012.3 hPa 6.5 km/h
2 Bft
16.2 km/h
3 Bft
SO -
0.0 mm/h
1.1 319 cm
08:30 Leicht bewölkt3 24.2 °C
24.2 °C
74 %
19.1 °C
1012.3 hPa 3.2 km/h
1 Bft
14.4 km/h
3 Bft
SO -
0.0 mm/h
1.2 319 cm
08:45 Leicht bewölkt3 24.6 °C
24.6 °C
73 %
19.3 °C
1012.2 hPa 3.2 km/h
1 Bft
9.7 km/h
2 Bft
SO -
0.0 mm/h
1.6 319 cm
09:00 Leicht bewölkt3 25.0 °C
25.0 °C
71 %
19.2 °C
1012.2 hPa 3.2 km/h
1 Bft
6.5 km/h
2 Bft
NO 0.00 mm
0.0 mm/h
2.1 319 cm
09:15 Wolkig3 26.2 °C
26.2 °C
67 %
19.4 °C
1012.0 hPa 1.4 km/h
1 Bft
4.7 km/h
1 Bft
ONO -
0.0 mm/h
2.7 318 cm
09:30 Wolkig3 26.2 °C
26.2 °C
66 %
19.2 °C
1012.0 hPa 1.4 km/h
1 Bft
6.5 km/h
2 Bft
NNW -
0.0 mm/h
2.1 318 cm
09:45 Wolkig3 26.1 °C
26.1 °C
66 %
19.1 °C
1012.2 hPa 3.2 km/h
1 Bft
6.5 km/h
2 Bft
NW -
0.0 mm/h
1.6 318 cm
10:00 Wolkig3 26.1 °C
26.1 °C
66 %
19.1 °C
1012.4 hPa 3.2 km/h
1 Bft
7.9 km/h
2 Bft
NW 0.00 mm
0.0 mm/h
1.3 318 cm
10:15 Tröpfeln4 26.0 °C
26.0 °C
66 %
19.1 °C
1012.5 hPa 3.2 km/h
1 Bft
7.9 km/h
2 Bft
NNW -
0.0 mm/h
1.1 318 cm
10:30 Stark bewölkt2 26.2 °C
26.2 °C
66 %
19.2 °C
1012.2 hPa 1.4 km/h
1 Bft
6.5 km/h
2 Bft
NNW -
0.0 mm/h
1.1 318 cm
10:45 Wolkig3 26.3 °C
26.3 °C
66 %
19.3 °C
1012.1 hPa 1.4 km/h
1 Bft
6.5 km/h
2 Bft
NNW -
0.0 mm/h
1.6 318 cm
11:00 Wolkig3 26.4 °C
26.4 °C
61 %
18.2 °C
1012.1 hPa 3.2 km/h
1 Bft
4.7 km/h
1 Bft
NNW 0.00 mm
0.0 mm/h
1.6 318 cm
11:15 Wolkig3 27.1 °C
28.4 °C
63 %
19.3 °C
1012.1 hPa 1.4 km/h
1 Bft
4.7 km/h
1 Bft
ONO -
0.0 mm/h
2.2 318 cm
11:30 Wolkig2 27.7 °C
29.0 °C
60 %
19.1 °C
1012.1 hPa 1.4 km/h
1 Bft
4.7 km/h
1 Bft
ONO -
0.0 mm/h
3.8 318 cm
11:45 Wolkig2 28.2 °C
29.5 °C
58 %
19.1 °C
1012.0 hPa 3.2 km/h
1 Bft
7.9 km/h
2 Bft
NNO -
0.0 mm/h
4.8 318 cm
12:00 Wolkig2 28.9 °C
30.4 °C
57 %
19.4 °C
1012.0 hPa 3.2 km/h
1 Bft
7.9 km/h
2 Bft
OSO 0.00 mm
0.0 mm/h
5.4 318 cm
12:15 Wolkig2 29.5 °C
31.1 °C
55 %
19.4 °C
1011.9 hPa 3.2 km/h
1 Bft
11.2 km/h
2 Bft
ONO -
0.0 mm/h
5.6 316 cm
12:30 Leicht bewölkt2 30.1 °C
31.7 °C
53 %
19.3 °C
1011.9 hPa 4.7 km/h
1 Bft
13.0 km/h
3 Bft
OSO -
0.0 mm/h
5.2 315 cm
12:45 Leicht bewölkt3 29.7 °C
30.9 °C
52 %
18.7 °C
1011.7 hPa 4.7 km/h
1 Bft
13.0 km/h
3 Bft
OSO -
0.0 mm/h
5.8 315 cm
13:00 Leicht bewölkt3 29.9 °C
31.2 °C
52 %
18.9 °C
1011.6 hPa 4.7 km/h
1 Bft
14.4 km/h
3 Bft
OSO 0.00 mm
0.0 mm/h
5.3 315 cm
13:15 Leicht bewölkt3 31.1 °C
31.7 °C
44 %
17.3 °C
1011.4 hPa 4.7 km/h
1 Bft
13.0 km/h
3 Bft
O -
0.0 mm/h
5.9 315 cm
13:30 Leicht bewölkt3 31.6 °C
32.4 °C
44 %
17.7 °C
1011.4 hPa 3.2 km/h
1 Bft
13.0 km/h
3 Bft
NNO -
0.0 mm/h
6.2 315 cm
13:45 Leicht bewölkt3 32.1 °C
32.1 °C
39 %
16.3 °C
1011.3 hPa 4.7 km/h
1 Bft
13.0 km/h
3 Bft
O -
0.0 mm/h
6.3 315 cm
14:00 Leicht bewölkt3 32.3 °C
32.3 °C
38 %
16.1 °C
1011.0 hPa 4.7 km/h
1 Bft
14.4 km/h
3 Bft
NO 0.00 mm
0.0 mm/h
6.2 315 cm
14:15 Sonnig2 32.1 °C
32.1 °C
34 %
14.2 °C
1011.1 hPa 6.5 km/h
2 Bft
20.9 km/h
4 Bft
SO -
0.0 mm/h
6.5 315 cm
14:30 Sonnig2 32.6 °C
32.6 °C
35 %
15.0 °C
1011.0 hPa 4.7 km/h
1 Bft
14.4 km/h
3 Bft
SO -
0.0 mm/h
5.9 315 cm
14:45 Sonnig2 33.8 °C
33.8 °C
35 %
16.0 °C
1010.8 hPa 6.5 km/h
2 Bft
17.6 km/h
3 Bft
OSO -
0.0 mm/h
5.7 315 cm
15:00 Leicht bewölkt3 33.1 °C
33.1 °C
35 %
15.4 °C
1010.7 hPa 3.2 km/h
1 Bft
17.6 km/h
3 Bft
SO 0.00 mm
0.0 mm/h
5.7 315 cm
15:15 Leicht bewölkt3 34.0 °C
34.0 °C
35 %
16.2 °C
1010.5 hPa 6.5 km/h
2 Bft
16.2 km/h
3 Bft
SSO -
0.0 mm/h
5.3 314 cm
15:30 Leicht bewölkt3 32.3 °C
32.3 °C
37 %
15.6 °C
1010.6 hPa 7.9 km/h
2 Bft
16.2 km/h
3 Bft
SSO -
0.0 mm/h
5.2 314 cm
15:45 Wolkig3 32.9 °C
32.9 °C
35 %
15.3 °C
1010.4 hPa 6.5 km/h
2 Bft
17.6 km/h
3 Bft
OSO -
0.0 mm/h
5.3 314 cm
16:00 Wolkig3 32.6 °C
32.6 °C
37 %
15.9 °C
1010.5 hPa 4.7 km/h
1 Bft
17.6 km/h
3 Bft
OSO 0.00 mm
0.0 mm/h
4.0 314 cm
16:15 Wolkig3 33.3 °C
33.3 °C
36 %
16.1 °C
1010.4 hPa 6.5 km/h
2 Bft
16.2 km/h
3 Bft
SSO -
0.0 mm/h
4.0 314 cm
16:30 Wolkig3 34.0 °C
34.0 °C
33 %
15.3 °C
1010.2 hPa 7.9 km/h
2 Bft
20.9 km/h
4 Bft
S -
0.0 mm/h
4.4 314 cm
16:45 Leichter Regen4 33.1 °C
33.1 °C
35 %
15.4 °C
1010.2 hPa 11.2 km/h
2 Bft
24.1 km/h
4 Bft
SO -
0.0 mm/h
4.8 314 cm
17:00 Leicht bewölkt3 32.3 °C
32.3 °C
34 %
14.4 °C
1010.0 hPa 9.7 km/h
2 Bft
25.9 km/h
4 Bft
SSO 0.00 mm
0.0 mm/h
1.8 313 cm
17:15 Leicht bewölkt3 33.2 °C
33.2 °C
36 %
16.0 °C
1009.9 hPa 9.7 km/h
2 Bft
22.7 km/h
4 Bft
O -
0.0 mm/h
3.6 314 cm
17:30 Leicht bewölkt2 33.8 °C
33.8 °C
35 %
16.0 °C
1009.6 hPa 11.2 km/h
2 Bft
28.8 km/h
5 Bft
SO -
0.0 mm/h
3.2 314 cm
17:45 Sonnig2 33.9 °C
33.9 °C
35 %
16.1 °C
1009.6 hPa 7.9 km/h
2 Bft
22.7 km/h
4 Bft
SO -
0.0 mm/h
2.8 313 cm
18:00 Leicht bewölkt3 34.0 °C
34.0 °C
35 %
16.2 °C
1009.6 hPa 7.9 km/h
2 Bft
30.6 km/h
5 Bft
SSW 0.00 mm
0.0 mm/h
2.6 313 cm
18:15 Sonnig2 33.5 °C
33.5 °C
35 %
15.8 °C
1009.4 hPa 11.2 km/h
2 Bft
28.8 km/h
5 Bft
S -
0.0 mm/h
2.4 312 cm
18:30 Sonnig2 33.6 °C
33.6 °C
35 %
15.9 °C
1009.5 hPa 7.9 km/h
2 Bft
20.9 km/h
4 Bft
SW -
0.0 mm/h
2.1 311 cm
18:45 Sonnig2 32.3 °C
32.3 °C
37 %
15.6 °C
1009.4 hPa 11.2 km/h
2 Bft
30.6 km/h
5 Bft
SSO -
0.0 mm/h
1.8 311 cm
19:00 Sonnig2 33.3 °C
33.3 °C
37 %
16.5 °C
1009.5 hPa 6.5 km/h
2 Bft
30.6 km/h
5 Bft
SSW 0.00 mm
0.0 mm/h
1.6 311 cm
19:15 Sonnig2 32.3 °C
32.3 °C
39 %
16.5 °C
1009.6 hPa 7.9 km/h
2 Bft
17.6 km/h
3 Bft
SW -
0.0 mm/h
1.4 311 cm
19:30 Sonnig2 32.1 °C
32.6 °C
41 %
17.1 °C
1009.7 hPa 7.9 km/h
2 Bft
24.1 km/h
4 Bft
SSO -
0.0 mm/h
1.1 312 cm
19:45 Sonnig2 31.5 °C
31.9 °C
42 %
16.9 °C
1009.7 hPa 6.5 km/h
2 Bft
22.7 km/h
4 Bft
SW -
0.0 mm/h
0.9 311 cm
20:00 Leicht bewölkt3 31.3 °C
31.6 °C
42 %
16.7 °C
1009.8 hPa 6.5 km/h
2 Bft
14.4 km/h
3 Bft
SSW 0.00 mm
0.0 mm/h
0.6 311 cm
20:15 Leicht bewölkt3 31.1 °C
31.3 °C
42 %
16.5 °C
1009.9 hPa 7.9 km/h
2 Bft
16.2 km/h
3 Bft
SSW -
0.0 mm/h
0.0 312 cm
20:30 Sonnig2 30.8 °C
30.9 °C
42 %
16.3 °C
1010.0 hPa 7.9 km/h
2 Bft
25.9 km/h
4 Bft
SW -
0.0 mm/h
0.0 310 cm
20:45 Leicht bewölkt3 30.6 °C
30.7 °C
42 %
16.1 °C
1010.0 hPa 7.9 km/h
2 Bft
17.6 km/h
3 Bft
SSW -
0.0 mm/h
0.0 310 cm
21:00 Leicht bewölkt3 30.2 °C
30.4 °C
44 %
16.5 °C
1010.1 hPa 7.9 km/h
2 Bft
17.6 km/h
3 Bft
SSW 0.00 mm
0.0 mm/h
0.0 310 cm
21:15 Leicht bewölkt3 29.9 °C
30.2 °C
45 %
16.6 °C
1010.1 hPa 6.5 km/h
2 Bft
17.6 km/h
3 Bft
SSW -
0.0 mm/h
0.0 311 cm
21:30 Sonnig2 29.5 °C
29.9 °C
47 %
16.9 °C
1010.3 hPa 6.5 km/h
2 Bft
14.4 km/h
3 Bft
SSW -
0.0 mm/h
0.0 310 cm
21:45 Leicht bewölkt3 29.2 °C
29.6 °C
47 %
16.6 °C
1010.4 hPa 6.5 km/h
2 Bft
16.2 km/h
3 Bft
WSW -
0.0 mm/h
0.0 310 cm
22:00 Leicht bewölkt3 28.9 °C
29.3 °C
48 %
16.7 °C
1010.6 hPa 4.7 km/h
1 Bft
13.0 km/h
3 Bft
SW 0.00 mm
0.0 mm/h
0.0 310 cm
22:15 Leicht bewölkt3 28.6 °C
29.0 °C
49 %
16.8 °C
1010.6 hPa 4.7 km/h
1 Bft
14.4 km/h
3 Bft
SSW -
0.0 mm/h
0.0 309 cm
22:30 Leicht bewölkt3 28.4 °C
28.9 °C
50 %
16.9 °C
1010.7 hPa 6.5 km/h
2 Bft
11.2 km/h
2 Bft
SSW -
0.0 mm/h
0.0 310 cm
22:45 Wolkig3 28.1 °C
28.7 °C
51 %
16.9 °C
1010.7 hPa 6.5 km/h
2 Bft
14.4 km/h
3 Bft
SW -
0.0 mm/h
0.0 310 cm
23:00 Wolkig3 27.7 °C
28.4 °C
53 %
17.2 °C
1010.9 hPa 4.7 km/h
1 Bft
13.0 km/h
3 Bft
SW
0.0 mm/h
0.0 -- cm




-
-- cm




-
-- cm




-
-- cm





-- cm
Messwerte stehen ab 00:15 Uhr zur Verfügung.
Aus technischen Gründen wird die Niederschlagssumme der vorangegangenen Stunde erst um :30 der Folgestunde aktualisiert. Die Pegelstände werden ab 01:45 Uhr 15 Minuten zeitversetzt aktualisiert. Datenbasis Wetterzustand: ¹ Wetterstation Köln-Nippes (Stellwerk), ² powered by , ³ powered by OpenWeatherMap, CC BY-SA 4.0; Warnlage: DWD, Pegelonline, LANUV; Pegel Köln: Pegelonline
 
Extrem- und Durchschnittswerte
  Temperatur Luftfeuchte Luftdruck Wind Windböen Wind-
richtung
Regen UV-Index Pegel Köln KKT
Min

Max

Ø
22.8 °C
05:58 Uhr
34.8 °C
16:35 Uhr
28.3 °C
31.0 %
16:35 Uhr
77.0 %
06:11 Uhr
54.6 %
1009.3 hPa
18:14 Uhr
1012.5 hPa
09:54 Uhr
1011.1 hPa
 
 
13.0 km/h
17:25 Uhr
5.1 km/h
 
 
30.6 km/h
17:47 Uhr
 
 
 
SO
 
 
 
 
0.00 mm
 
 
 
 
6.5
14:07 Uhr
 
309 cm
22:15 Uhr
322 cm
00:15 Uhr
 
HT TN
  gefühlt Taupunkt   Wind Windböen   Regenrate Ozon Sonne Mond
Min

Max

Ø
22.8 °C
05:58 Uhr
34.8 °C
16:35 Uhr
 
14.1 °C
14:16 Uhr
19.7 °C
09:09 Uhr
17.5 °C
   
 
3 Bft
17:25 Uhr
5.1 km/h
 
 
5 Bft
17:47 Uhr
 
   
 
0.0 mm/h
00:00 Uhr
 
 
Chorweiler
137 μg/m³
16:00 Uhr
 
▲ 05:17 Uhr
▼ 21:50 Uhr
▼ 02:07 Uhr
▲ 13:39 Uhr
KKT = Klimatologischer Kenntag: ET = Eistag, FT = Frosttag, KT = Kalter Tag, ST = Sommertag, HT = Hitzetag, TN = Tropennacht, NT = Niederschlagstag, SH = Schneehöhe (Max Tag); Datenbasis Ozon: LANUV, Land NRW, dl-de/by-2-0
 
Detaillierte Warnlage
STARKE HITZE
17.06.21, 11:00 Uhr bis 18.06.21, 19:00 Uhr
Am Donnerstag wird eine starke Wärmebelastung erwartet. Am Freitag wird eine starke Wärmebelastung erwartet. Die Hitze wird alte und pflegebedürftige Menschen extrem belasten. Donnerstag und Freitag ist mit einer zusätzlichen Belastung aufgrund verringerter nächtlicher Abkühlung insbesondere im dicht bebauten Stadtgebiet von Köln zu rechnen. Heute ist der 2. Tag der Warnsituation in Folge.
EXTREME HITZE
18.06.21, 11:00 Uhr bis 19:00 Uhr
Am Freitag wird eine extreme Wärmebelastung erwartet. Freitag ist mit einer zusätzlichen Belastung aufgrund verringerter nächtlicher Abkühlung insbesondere im dicht bebauten Stadtgebiet von Köln zu rechnen. Heute ist der 3. Tag der Warnsituation in Folge.
STARKES GEWITTER
18.06.21, 16:34 Uhr bis 17:30 Uhr
Es treten Gewitter auf. Dabei gibt es Sturmböen mit Geschwindigkeiten bis 85 km/h (24m/s, 47kn, Bft 9) sowie Starkregen mit Niederschlagsmengen bis 25 l/m² pro Stunde und kleinkörnigen Hagel. ACHTUNG! Hinweis auf mögliche Gefahren: Örtlich kann es Blitzschlag geben. Bei Blitzschlag besteht Lebensgefahr! Vereinzelt können beispielsweise Bäume entwurzelt und Dächer beschädigt werden. Achten Sie besonders auf herabstürzende Äste, Dachziegel oder Gegenstände. Während des Platzregens sind kurzzeitig Verkehrsbehinderungen möglich.













18.06.21

18.06.21

18.06.21

18.06.21

18.06.21

18.06.21
HOHE WALDBRANDGEFAHR
18.06.21
Datenbasis: DWD, Pegelonline, LANUV